www.pogodaiklimat.ru

Погода и климат >> Архив погоды >> Мадагаскар >> Farafangana


ПОГОДА в Farafangana

  • Прогноз погоды в Farafangana
  • Монитор погоды в Farafangana
  • Климат города

АРХИВ ПОГОДЫ в Farafangana

Время (UTC), дата Ветер
(напр.,м/с)
 
Видим.   Явления Облачность Т
(С)
Тd
(С)
f
(%)
Тe
(С)
Тes
(С)
Комфортность P
(гПа)
Po
(гПа)
Тmin
(С)
Tmax
(С)
R
(мм)
R24
(мм)
S
(см)
00 7.12 0 30 км 5/5 600 м
[Cu Sc]
1015.6 1014.9
03 7.12 0 30 км 5/5 600 м
[Cu Sc Ci sp]
1015.4 1014.7
06 7.12 В 5 30 км 6/6 700 м
[Cu Sc Ci sp]
1016.5 1015.8
09 7.12 0 40 км 3/3 700 м
[Cu Sc]
1016.0 1015.3
12 7.12 0 40 км 1/1 700 м
[Cu Sc]
1015.1 1014.4
00 8.12 0 30 км 1/1 600 м
[Cu Sc Ci sp]
1016.9 1016.2
03 8.12 30 км н/о 1016.6 1015.9
06 8.12 В 5 35 км 3/3 600 м
[Cu med, cong]
1017.1 1016.4
09 8.12 0 40 км 1/1 700 м
[Cu med, cong]
1016.2 1015.5
12 8.12 0 40 км 1/1 700 м
[Cu med, cong]
1015.5 1014.8
15 8.12 0 35 км 3/3 700 м
[Cu Sc]
1015.5 1014.8
00 9.12 0 30 км 1/1 600 м
[Cu med, cong]
1016.8 1016.1
03 9.12 0 30 км 1/1 600 м
[Cu Sc]
1013.4 1015.7
06 9.12 В 5 35 км 1/1 700 м
[Cu Sc Ci sp]
1017.1 1016.4
09 9.12 0 40 км 1/1 700 м
[Cu Sc Ci sp]
1016.4 1015.7
12 9.12 0 40 км 1/1 700 м
[Cu med, cong]
1015.7 1015.0
15 9.12 0 30 км 1/1 700 м
[Cu Sc]
1016.0 1015.3
00 10.12 0 30 км 1/1 600 м
[Cu Sc]
1016.9 1016.2
03 10.12 0 30 км 1/1 600 м
[Cu Sc]
1016.5 1015.8
06 10.12 СВ 5 35 км 4/4 600 м
[Cu Sc]
1016.9 1016.2
09 10.12 0 40 км 3/3 700 м
[Cu med, cong]
1015.9 1015.2
12 10.12 0 40 км 1/1 700 м
[Cu Sc]
1014.4 1013.7
15 10.12 0 30 км 5/5 600 м
[Cu Sc]
1015.1 1014.4
00 11.12 0 30 км 8/8 600 м
[Cu Sc]
1015.7 1015.0
03 11.12 0 30 км 8/8 600 м
[Cu Sc]
1015.4 1014.7
06 11.12 СВ 5 35 км 5/5 700 м
[Cu Sc Ci sp]
1015.9 1015.2
09 11.12 0 40 км 4/4 700 м
[Cu Sc Ci sp]
1014.5 1013.8
12 11.12 0 40 км 3/3 700 м
[Cu Sc]
1013.5 1012.8
15 11.12 0 30 км 6/6 600 м
[Cu Sc]
1012.8 1012.1
03 12.12 0 25 км осадки на расстоянии {дождь} 9/9 500 м
[Cu Sc]
1015.4 1014.7 4
06 12.12 30 км {дождь} н/о 1015.8 1015.1 4
09 12.12 0 40 км 8/8 700 м
[Cu Sc Ci sp]
1014.9 1014.2
12 12.12 0 40 км 6/6 700 м
[Cu Sc Ci sp]
1014.4 1013.7
15 12.12 30 км н/о 1014.8 1014.1
00 13.12 0 10 км слабый дождь 9/9 500 м
[Cu Sc]
1016.8 1016.1 2
03 13.12 0 25 км осадки на расстоянии {дождь} 8/8 500 м
[Cu Sc]
1017.1 1016.4 2
06 13.12 35 км {дождь} н/о 1018.3 1017.6 2
09 13.12 0 40 км 5/5 700 м
[Cu Sc Ci sp]
1017.5 1016.8
12 13.12 0 40 км 4/4 700 м
[Cu Sc Ci sp]
1016.8 1016.1
15 13.12 0 30 км 8/8 600 м
[Cu Sc Ci sp]
1017.1 1016.4

 

Местоположение метеостанции Farafangana (Мадагаскар): широта -22.80 долгота 47.83 высота над уровнем моря 6 м.

В архиве по умолчанию представлена погода в Farafangana за последнюю неделю. Архивные данные за месяц целиком и за предыдущие месяцы, начиная с января 2011 года, Вы можете получить, выбрав интересующий диапазон дат из раскрывающегося списка и нажав кнопку "Ввод!".


*Определитесь, кто Вы:
робот инопланетянин человек

Внимание! Время в таблицах - всемирное. Для получения местного времени необходимо прибавить поправку, которая в Farafangana равна 3 ч.

Смотрите также архив погоды в соседних городах и на ближайших метеорологических станциях:

Погода в Mananjary (Мадагаскар) (145 км)
Погода в Fianarantsoa (Мадагаскар) (168 км)
Погода в Taolagnaro (Мадагаскар) (264 км)
Погода в Antsirabe (Мадагаскар) (342 км)
Погода в Mahanoro (Мадагаскар) (345 км)
Погода в Ranohira (Мадагаскар) (393 км)
Погода в Toliara (Мадагаскар) (424 км)
Погода в Antananarivo (Мадагаскар) (438 км)
Погода в Antananarivo Airport (Мадагаскар) (446 км)
Погода в Morondava (Мадагаскар) (459 км)

Пояснения к столбцам:

Ветер - указаны скорость ветра в м/с - средняя за 10 мин, порывы в срок и между сроками (в фигурных скобках) и направление, откуда дует ветер: С - северный, СВ - северо-восточный, В - восточный, ЮВ - юго-восточный, Ю - южный, ЮЗ - юго-западный, З - западный, СЗ - северо-западный.
Видимость - горизонтальная дальность видимости в метрах или километрах. При видимости от 1 до 10 км при отсутствии осадков обычно наблюдается дымка, при ухудшении видимости до 1 км и менее - туман. В сухую погоду видимость может ухудшаться дымом, пылью или мглою.
Явления - указаны атмосферные явления, наблюдавшиеся в срок или в последний час перед сроком; фигурными скобками обозначены явления, наблюдавшиеся между сроками (за 1-3 часа до срока); квадратными скобками обозначены град или гололедные отложения с указанием их диаметра в мм.
Облачность - указаны через наклонную черту общая и нижняя облачность в баллах и высота нижней границы облаков в метрах; квадратными скобками обозначены формы облаков: Ci - перистые, Cs - перисто-слоистые, Cc - перисто-кучевые, Ac - высококучевые, As - высокослоистые, Sc - слоисто-кучевые, Ns - слоисто-дождевые, Cu - кучевые, Cb - кучево-дождевые. Подробнее классификацию облаков см. в Атласе облаков (PDF).
T - Температура воздуха - температура, измеренная на высоте 2 м над землей.
Td - Температура точки росы - температура, при понижении до которой содержащийся в воздухе водяной пар достигнет насыщения.
f - Относительная влажность воздуха - влажноcть воздуха, измеренная на высоте 2 м над землей.
Te - Эффективная температура - температура, которую ощущает одетый по сезону человек в тени. Характеристика душности погоды. При расчете учитывается влияние влажности воздуха и скорости ветра на теплоощущения человека.
Tes - Эффективная температура на солнце - температура, которую ощущает человек, с поправкой на солнечный нагрев. Характеристика знойности погоды. Зависит от высоты солнца над горизонтом, облачности и скорости ветра. Ночью, в пасмурную погоду, а также при ветре 12 м/с и более поправка равна нулю.
P - Атмосферное давление - приведенное к уровню моря атмосферное давление.
Po - Атмосферное давление - измеренное на уровне метеостанции атмосферное давление.
Tmin - Минимальная температура - минимум температуры воздуха на высоте 2 м над землей.
Tmax - Максимальная температура - максимум температуры воздуха на высоте 2 м над землей.
R - Количество осадков - Количество выпавших осадков за период времени, мм. При наведении курсора мыши на число - период времени, за который выпало указанное количество осадков.
R24 - Количество осадков - Количество выпавших осадков за 24 часа, мм.
S - Снежный покров - Высота снежного покрова, см. При наведении курсора мыши на число - состояние снежного покрова и степень покрытия местности в баллах.